{"data":{"norad_id":59927,"epoch":"2026-05-25T01:06:03.216384Z","epoch_age_seconds":64319,"freshness":"FRESH","line1":"1 59927U 24106F   26145.04587056 -.00000781  00000+0 -18868-4 0  9990","line2":"2 59927  43.0037 261.0374 0001466 275.0450  85.0234 15.27575499112251","mean_motion":15.27575499,"eccentricity":0.0001466,"inclination_deg":43.0037,"raan_deg":261.0374,"arg_perigee_deg":275.045,"mean_anomaly_deg":85.0234,"bstar":-1.8868e-5,"rev_number":11225,"period_min":94.267026470552,"perigee_km":482.05672182847,"apogee_km":484.06842554348,"semimajor_km":6861.199573686,"source":"CELESTRAK","updated_at":"2026-05-25T13:38:19.122622Z"}}